Weather History for KHZY - May, 2014

Change the Weather History Date:

Friday, May 9, 2014

  Actual Average (KYNG) Record (KYNG)
Temperature  
Mean Temperature 73 °F 56 °F  
Max Temperature 82 °F 67 °F 89 °F (1936)
Min Temperature 64 °F 45 °F 28 °F (1983)
Degree Days  
Heating Degree Days 0 10  
Month to date heating degree days 96  
Since 1 July heating degree days 6123  
Cooling Degree Days 8 1  
Month to date cooling degree days 2  
Year to date cooling degree days 11  
Growing Degree Days 23 (Base 50)    
Moisture  
Dew Point 56 °F    
Average Humidity 60    
Maximum Humidity 84    
Minimum Humidity 38    
Precipitation  
Precipitation 0.17 in 0.12 in 0.57 in (2003)
Month to date precipitation 1.02  
Year to date precipitation 12.02  
Snow  
Snow 0.00 in 0.00 in - ()
Month to date snowfall 0.0  
Since 1 July snowfall 62.7  
Snow Depth -    
Sea Level Pressure  
Sea Level Pressure 29.90 in    
Wind  
Wind Speed 10 mph (SSW)    
Max Wind Speed 20 mph    
Max Gust Speed 36 mph    
Visibility 9 miles    
Events Rain , Thunderstorm    
T = Trace of Precipitation, MM = Missing Value Source: NWS Daily Summary

Daily Weather History Graph

Daily Weather History Graph

Search for Another Location

Airport or City:

Trip Planner

Search our weather history database for the weather conditions in past years. The results will help you decide how hot, cold, wet, or windy it might be!

Date:

Astronomy

May. 09, 2014 Rise Set
Actual Time 6:09 AM EDT 8:29 PM EDT
Civil Twilight 5:38 AM EDT 9:00 PM EDT
Nautical Twilight 4:59 AM EDT 9:39 PM EDT
Astronomical Twilight 4:17 AM EDT 10:22 PM EDT
Moon 3:21 PM EDT (5/9) 3:15 AM EDT (5/9)
Length of Visible Light 15h 22m
Length of Day
14h 20m
Waxing Gibbous, 73% of the Moon is Illuminated
May 9
Waxing Gibbous
May 14
Full
May 21
Last Quarter
May 28
New
Jun 5
First Quarter

Hourly Weather History & Observations

Time (EDT) Temp. Heat Index Dew Point Humidity Pressure Visibility Wind Dir Wind Speed Gust Speed Precip Events Conditions
12:53 AM 72.0 °F - 55.9 °F 57% 29.98 in 10.0 mi SSW 8.1 mph - N/A   Clear
1:53 AM 70.0 °F - 55.0 °F 59% 29.96 in 10.0 mi South 6.9 mph - N/A   Clear
2:53 AM 69.1 °F - 54.0 °F 58% 29.96 in 10.0 mi SSW 6.9 mph - N/A   Clear
3:53 AM 68.0 °F - 54.0 °F 61% 29.96 in 10.0 mi South 9.2 mph - N/A   Clear
5:53 AM 64.0 °F - 53.1 °F 67% 29.96 in 10.0 mi South 8.1 mph - N/A   Clear
6:53 AM 64.0 °F - 53.1 °F 67% 29.97 in 10.0 mi South 6.9 mph - N/A   Clear
7:53 AM 66.9 °F - 53.1 °F 61% 29.97 in 10.0 mi South 6.9 mph - N/A   Clear
8:53 AM 73.0 °F - 51.1 °F 46% 29.96 in 10.0 mi SSW 11.5 mph - N/A   Clear
9:53 AM 75.9 °F - 51.1 °F 42% 29.96 in 10.0 mi SSW 17.3 mph 23.0 mph N/A   Clear
10:53 AM 79.0 °F - 53.1 °F 40% 29.94 in 10.0 mi SW 12.7 mph 18.4 mph N/A   Clear
11:53 AM 82.0 °F 81.3 °F 54.0 °F 38% 29.91 in 10.0 mi SSW 16.1 mph 28.8 mph N/A   Partly Cloudy
12:53 PM 80.1 °F 80.0 °F 54.0 °F 40% 29.89 in 10.0 mi SSW 17.3 mph 27.6 mph N/A   Scattered Clouds
1:53 PM 81.0 °F 80.8 °F 55.9 °F 42% 29.86 in 10.0 mi SSW 13.8 mph 24.2 mph N/A   Scattered Clouds
2:41 PM 79.0 °F - 55.0 °F 44% 29.85 in 10.0 mi SSW 15.0 mph - N/A Thunderstorm Overcast
2:53 PM 75.9 °F - 57.0 °F 52% 29.86 in 6.0 mi WSW 19.6 mph 25.3 mph 0.01 in Rain , Thunderstorm Rain
3:04 PM 68.0 °F - 59.0 °F 73% 29.91 in 2.5 mi West 19.6 mph 35.7 mph 0.06 in Rain , Thunderstorm Heavy Thunderstorms and Rain
3:21 PM 66.0 °F - 61.0 °F 84% 29.90 in 3.0 mi SW 11.5 mph 34.5 mph 0.14 in Rain , Thunderstorm Rain
3:29 PM 66.0 °F - 61.0 °F 84% 29.89 in 6.0 mi SSW 10.4 mph - 0.16 in Rain Light Rain
3:53 PM 66.9 °F - 61.0 °F 81% 29.86 in 10.0 mi South 9.2 mph - 0.16 in   Mostly Cloudy
4:53 PM 70.0 °F - 62.1 °F 76% 29.83 in 10.0 mi SSW 10.4 mph 18.4 mph 0.00 in   Scattered Clouds
5:53 PM 72.0 °F - 60.1 °F 66% 29.81 in 10.0 mi South 6.9 mph - N/A   Clear
6:53 PM 73.0 °F - 60.1 °F 64% 29.80 in 10.0 mi SSW 10.4 mph - N/A   Mostly Cloudy
7:53 PM 72.0 °F - 59.0 °F 64% 29.81 in 10.0 mi SSW 9.2 mph - N/A   Overcast
8:53 PM 70.0 °F - 59.0 °F 68% 29.81 in 10.0 mi South 8.1 mph - N/A   Mostly Cloudy
9:53 PM 70.0 °F - 57.0 °F 63% 29.82 in 10.0 mi SSW 11.5 mph - N/A   Mostly Cloudy
11:53 PM 66.9 °F - 57.9 °F 73% 29.87 in 10.0 mi West 11.5 mph - N/A   Mostly Cloudy